N2RFA-13 Weather Reports


Display with metric or nautical units.
time (UTC)temp
F
wind
direction
speed
MPH
gust
MPH
rain 1hr
in
rain 24hr
in
rain mn
in
humidity
%
barometer
mb
20260906164539 75 122 0.0 1.0 0.00 0.00 0.00 69 1016.3
20260906163132 76 117 0.0 2.0 0.00 0.00 0.00 68 1016.3
20260906161531 75 126 0.0 1.0 0.00 0.00 0.00 72 1016.4
20260906160030 76 314 0.0 3.0 0.00 0.00 0.00 67 1016.6
20260906154537 75 140 0.0 1.0 0.00 0.00 0.00 71 1016.6
20260906153023 73 127 1.0 2.0 0.00 0.00 0.00 74 1016.7
20260906151517 71 136 0.0 2.0 0.00 0.00 0.00 81 1016.8
20260906150014 0 0.0 0.0 0.00 0.00 0.00 1016.8
20260906144510 0 0.0 0.0 0.00 0.00 0.00 1016.7
20260906143006 0 0.0 0.0 0.00 0.00 0.00 1016.7
20260906141502 0 0.0 0.0 0.00 0.00 0.00 1016.4
20260906140056 0 0.0 0.0 0.00 0.00 0.00 1016.4
20260906134553 0 0.0 0.0 0.00 0.00 0.00 1016.4
20260906133103 0 0.0 0.0 0.00 0.00 0.00 1016.4
20260906131544 0 0.0 0.0 0.00 0.00 0.00 1016.4
20260906130044 0 0.0 0.0 0.00 0.00 0.00 1016.3
20260906124539 0 0.0 0.0 0.00 0.00 0.00 1016.3
20260906123032 0 0.0 0.0 0.00 0.00 0.00 1016.2
20260906121525 0 0.0 0.0 0.00 0.00 0.00 1016.0
20260906120022 0 0.0 0.0 0.00 0.00 0.00 1015.9
20260906114530 0 0.0 0.0 0.00 0.00 0.00 1015.8
20260906113013 0 0.0 0.0 0.00 0.00 0.00 1015.5
20260906111509 0 0.0 0.0 0.00 0.00 0.00 1015.4
20260906110004 0 0.0 0.0 0.00 0.00 0.00 1015.3
20260906104606 0 0.0 0.0 0.00 0.00 0.00 1015.1
20260906103055 0 0.0 0.0 0.00 0.00 0.00 1014.9
20260906101551 0 0.0 0.0 0.00 0.00 0.00 1014.8
20260906100047 57 194 0.0 0.0 0.00 0.00 0.00 95 1014.7
20260906094600 57 194 0.0 0.0 0.00 0.00 0.00 94 1014.5
20260906093105 58 194 0.0 0.0 0.00 0.00 0.00 94 1014.4
20260906091540 58 194 0.0 0.0 0.00 0.00 0.00 94 1014.1
20260906090039 58 194 0.0 0.0 0.00 0.00 0.00 94 1013.8
20260906084537 59 194 0.0 0.0 0.00 0.00 0.00 94 1013.8
20260906083045 59 194 0.0 0.0 0.00 0.00 0.00 94 1013.8
20260906081538 59 194 0.0 0.0 0.00 0.00 0.00 94 1013.7
20260906080040 60 194 0.0 0.0 0.00 0.00 0.00 94 1013.5
20260906074534 60 194 0.0 0.0 0.00 0.00 0.00 94 1013.5
20260906073030 60 194 0.0 0.0 0.00 0.00 0.00 94 1013.5
20260906071530 60 194 0.0 0.0 0.00 0.00 0.00 94 1013.4
20260906070029 60 203 0.0 0.0 0.00 0.00 0.00 94 1013.3
20260906064527 61 203 0.0 0.0 0.00 0.00 0.00 94 1013.5
20260906063026 61 203 0.0 0.0 0.00 0.00 0.00 94 1013.5
20260906061528 61 203 0.0 0.0 0.00 0.00 0.00 94 1013.7
20260906060024 61 203 0.0 0.0 0.00 0.00 0.00 94 1013.9
20260906054522 61 203 0.0 0.0 0.00 0.00 0.00 94 1013.9
20260906053021 61 203 0.0 0.0 0.00 0.00 0.00 93 1013.8
20260906051520 62 203 0.0 0.0 0.00 0.00 0.00 94 1013.8
20260906050020 62 203 0.0 0.0 0.00 0.00 0.00 93 1013.9
20260906044518 62 203 0.0 0.0 0.00 0.00 0.00 93 1013.9
20260906043019 62 203 0.0 0.0 0.00 0.00 0.00 93 1013.9
20260906041515 62 203 0.0 0.0 0.00 0.00 0.00 93 1013.7
20260906040020 62 203 0.0 0.0 0.00 0.00 0.00 93 1013.8
20260906034513 63 203 0.0 0.0 0.00 0.00 0.00 93 1013.9
20260906033011 63 203 0.0 0.0 0.00 0.00 0.00 93 1013.7
20260906031509 63 203 0.0 0.0 0.00 0.00 0.00 92 1013.6
20260906030010 63 203 0.0 0.0 0.00 0.00 0.00 92 1013.4
20260906024524 64 203 0.0 0.0 0.00 0.00 0.00 92 1013.4
20260906023012 64 203 0.0 0.0 0.00 0.00 0.00 92 1013.5
20260906021508 65 203 0.0 0.0 0.00 0.00 0.00 92 1013.4
20260906020005 65 203 0.0 0.0 0.00 0.00 0.00 91 1013.3
20260906014508 66 203 0.0 0.0 0.00 0.00 0.00 91 1013.3
20260906013008 66 203 0.0 0.0 0.00 0.00 0.00 90 1013.1
20260906011606 67 203 0.0 0.0 0.00 0.00 0.00 90 1013.0
20260906010059 67 203 0.0 0.0 0.00 0.00 0.00 91 1012.9
20260906004611 67 203 0.0 0.0 0.00 0.00 0.00 91 1012.8
20260906003112 67 203 0.0 0.0 0.00 0.00 0.00 91 1012.7
20260906001555 66 203 0.0 0.0 0.00 0.00 0.00 90 1012.5
20260906000055 66 203 0.0 0.0 0.00 0.00 0.00 90 1012.4
20260905234603 66 203 0.0 0.0 0.00 0.00 0.00 89 1012.2
20260905233053 67 203 0.0 0.0 0.00 0.00 0.00 88 1012.0
20260905231553 68 203 0.0 0.0 0.00 0.00 0.00 87 1012.1
20260905230052 69 203 0.0 0.0 0.00 0.00 0.00 86 1012.1
20260905224555 69 203 0.0 0.0 0.00 0.00 0.00 84 1012.0
20260905223050 70 203 0.0 0.0 0.00 0.00 0.00 82 1011.8
20260905221609 71 203 0.0 0.0 0.00 0.00 0.00 82 1011.6
20260905220050 71 203 0.0 0.0 0.00 0.00 0.00 81 1011.6
20260905214554 71 203 0.0 0.0 0.00 0.00 0.00 81 1011.5
20260905213100 71 229 0.0 1.0 0.00 0.00 0.00 81 1011.4
20260905211549 71 194 0.0 0.0 0.00 0.00 0.00 79 1011.5
20260905210053 72 194 0.0 0.0 0.00 0.00 0.00 82 1011.3
20260905204549 72 194 0.0 0.0 0.00 0.00 0.00 81 1011.3
20260905203048 72 194 0.0 0.0 0.00 0.00 0.00 80 1011.2
20260905201604 72 194 0.0 0.0 0.00 0.00 0.00 78 1011.2
20260905200048 73 194 0.0 0.0 0.00 0.00 0.00 79 1011.1
20260905194546 73 194 0.0 0.0 0.00 0.00 0.00 78 1011.1
20260905193056 75 194 0.0 0.0 0.00 0.00 0.00 74 1011.1
20260905191544 76 194 0.0 0.0 0.00 0.00 0.00 71 1011.0
20260905190044 76 194 0.0 3.0 0.00 0.00 0.00 69 1011.2
20260905184544 75 194 0.0 0.0 0.00 0.00 0.00 72 1011.3
20260905183043 76 194 0.0 0.0 0.00 0.00 0.00 71 1011.3
20260905181554 75 194 0.0 1.0 0.00 0.00 0.00 72 1011.3
20260905180043 76 194 0.0 0.0 0.00 0.00 0.00 70 1011.5
20260905174541 77 194 0.0 1.0 0.00 0.00 0.00 70 1011.5
20260905173041 78 194 0.0 2.0 0.00 0.00 0.00 66 1011.6
20260905171541 78 194 0.0 1.0 0.00 0.00 0.00 69 1011.8
20260905170041 80 194 0.0 2.0 0.00 0.00 0.00 63 1012.0